| time (UTC) | temp F | wind direction | speed MPH | gust MPH | rain 1hr in | rain 24hr in | rain mn in | humidity % | barometer mb |
| 20260904131607 | 73 | 212 | 2.0 | 22.0 | 0.00 | 0.00 | 0.00 | 73 | 1011.4 |
| 20260904131043 | 73 | 0 | 5.0 | 31.0 | 0.00 | 0.00 | 0.00 | 73 | 1011.3 |
| 20260904130544 | 74 | 245 | 11.0 | 31.0 | 0.00 | 0.00 | 0.00 | 72 | 1011.4 |
| 20260904130108 | 75 | 243 | 8.0 | 23.0 | 0.00 | 0.00 | 0.00 | 70 | 1011.4 |
| 20260904125545 | 74 | 250 | 3.0 | 22.0 | 0.00 | 0.00 | 0.00 | 71 | 1011.3 |
| 20260904125045 | 74 | 225 | 8.0 | 33.0 | 0.00 | 0.00 | 0.00 | 71 | 1011.3 |
| 20260904124605 | 75 | 287 | 13.0 | 33.0 | 0.00 | 0.00 | 0.00 | 69 | 1011.3 |
| 20260904124045 | 75 | 220 | 9.0 | 23.0 | 0.00 | 0.00 | 0.00 | 68 | 1011.2 |
| 20260904123546 | 76 | 246 | 3.0 | 25.0 | 0.00 | 0.00 | 0.00 | 68 | 1011.4 |
| 20260904123059 | 76 | 244 | 6.0 | 25.0 | 0.00 | 0.00 | 0.00 | 67 | 1011.2 |
| 20260904122546 | 76 | 286 | 7.0 | 22.0 | 0.00 | 0.00 | 0.00 | 69 | 1011.4 |
| 20260904122046 | 75 | 0 | 3.0 | 22.0 | 0.00 | 0.00 | 0.00 | 70 | 1011.4 |
| 20260904121605 | 75 | 0 | 8.0 | 24.0 | 0.00 | 0.00 | 0.00 | 68 | 1011.4 |
| 20260904121045 | 75 | 238 | 12.0 | 25.0 | 0.00 | 0.00 | 0.00 | 69 | 1011.4 |
| 20260904120546 | 75 | 248 | 9.0 | 25.0 | 0.00 | 0.00 | 0.00 | 71 | 1011.5 |
| 20260904120104 | 75 | 225 | 11.0 | 29.0 | 0.00 | 0.00 | 0.00 | 70 | 1011.6 |
| 20260904115546 | 75 | 0 | 12.0 | 29.0 | 0.00 | 0.00 | 0.00 | 71 | 1011.5 |
| 20260904115046 | 75 | 220 | 8.0 | 24.0 | 0.00 | 0.00 | 0.00 | 71 | 1011.6 |
| 20260904114608 | 74 | 286 | 5.0 | 27.0 | 0.00 | 0.00 | 0.00 | 72 | 1011.8 |
| 20260904114044 | 73 | 236 | 8.0 | 27.0 | 0.00 | 0.00 | 0.00 | 73 | 1011.7 |
| 20260904113546 | 73 | 243 | 10.0 | 27.0 | 0.00 | 0.00 | 0.00 | 73 | 1011.8 |
| 20260904113106 | 73 | 214 | 7.0 | 23.0 | 0.00 | 0.00 | 0.00 | 74 | 1011.9 |
| 20260904112546 | 73 | 250 | 4.0 | 23.0 | 0.00 | 0.00 | 0.00 | 74 | 1011.9 |
| 20260904112043 | 73 | 249 | 6.0 | 26.0 | 0.00 | 0.00 | 0.00 | 74 | 1011.8 |
| 20260904111604 | 73 | 0 | 11.0 | 26.0 | 0.00 | 0.00 | 0.00 | 73 | 1012.0 |
| 20260904111045 | 73 | 246 | 8.0 | 26.0 | 0.00 | 0.00 | 0.00 | 73 | 1012.0 |
| 20260904110545 | 73 | 218 | 11.0 | 26.0 | 0.00 | 0.00 | 0.00 | 73 | 1012.0 |
| 20260904110108 | 73 | 242 | 4.0 | 24.0 | 0.00 | 0.00 | 0.00 | 74 | 1012.2 |
| 20260904105547 | 73 | 250 | 8.0 | 24.0 | 0.00 | 0.00 | 0.00 | 74 | 1012.0 |
| 20260904105044 | 73 | 249 | 8.0 | 24.0 | 0.00 | 0.00 | 0.00 | 74 | 1012.1 |
| 20260904104617 | 73 | 231 | 4.0 | 19.0 | 0.00 | 0.00 | 0.00 | 74 | 1012.1 |
| 20260904104043 | 73 | 248 | 7.0 | 19.0 | 0.00 | 0.00 | 0.00 | 74 | 1012.1 |
| 20260904103543 | 73 | 228 | 5.0 | 23.0 | 0.00 | 0.00 | 0.00 | 75 | 1012.1 |
| 20260904103103 | 73 | 231 | 7.0 | 24.0 | 0.00 | 0.00 | 0.00 | 75 | 1012.1 |
| 20260904102548 | 73 | 216 | 8.0 | 25.0 | 0.00 | 0.00 | 0.00 | 74 | 1012.0 |
| 20260904102046 | 73 | 185 | 12.0 | 25.0 | 0.00 | 0.00 | 0.00 | 74 | 1012.0 |
| 20260904101605 | 73 | 217 | 7.0 | 31.0 | 0.00 | 0.00 | 0.00 | 74 | 1011.9 |
| 20260904101045 | 73 | 223 | 10.0 | 31.0 | 0.00 | 0.00 | 0.00 | 75 | 1011.9 |
| 20260904100545 | 73 | 205 | 9.0 | 21.0 | 0.00 | 0.00 | 0.00 | 75 | 1011.9 |
| 20260904100119 | 73 | 261 | 2.0 | 32.0 | 0.00 | 0.00 | 0.00 | 76 | 1011.9 |
| 20260904095545 | 73 | 212 | 6.0 | 32.0 | 0.00 | 0.05 | 0.00 | 75 | 1012.0 |
| 20260904095046 | 73 | 227 | 10.0 | 32.0 | 0.00 | 0.05 | 0.00 | 75 | 1012.2 |
| 20260904094617 | 73 | 178 | 15.0 | 29.0 | 0.00 | 0.05 | 0.00 | 74 | 1012.0 |
| 20260904094044 | 74 | 199 | 8.0 | 28.0 | 0.00 | 0.05 | 0.00 | 74 | 1012.1 |
| 20260904093544 | 74 | 211 | 8.0 | 28.0 | 0.00 | 0.05 | 0.00 | 74 | 1012.1 |
| 20260904093107 | 74 | 232 | 12.0 | 28.0 | 0.00 | 0.05 | 0.00 | 75 | 1012.0 |
| 20260904092543 | 73 | 200 | 14.0 | 25.0 | 0.00 | 0.05 | 0.00 | 76 | 1012.0 |
| 20260904092045 | 73 | 0 | 7.0 | 21.0 | 0.00 | 0.05 | 0.00 | 77 | 1012.2 |
| 20260904091604 | 73 | 188 | 6.0 | 25.0 | 0.00 | 0.05 | 0.00 | 76 | 1012.2 |
| 20260904091044 | 73 | 227 | 7.0 | 25.0 | 0.00 | 0.05 | 0.00 | 77 | 1012.2 |
| 20260904090545 | 72 | 223 | 8.0 | 24.0 | 0.00 | 0.05 | 0.00 | 78 | 1012.4 |
| 20260904090104 | 72 | 246 | 5.0 | 22.0 | 0.00 | 0.05 | 0.00 | 78 | 1012.5 |
| 20260904085544 | 72 | 0 | 7.0 | 24.0 | 0.00 | 0.18 | 0.00 | 79 | 1012.5 |
| 20260904085045 | 72 | 227 | 5.0 | 24.0 | 0.00 | 0.18 | 0.00 | 79 | 1012.7 |
| 20260904084604 | 71 | 232 | 7.0 | 23.0 | 0.00 | 0.18 | 0.00 | 80 | 1012.8 |
| 20260904084045 | 71 | 238 | 2.0 | 17.0 | 0.00 | 0.18 | 0.00 | 81 | 1012.7 |
| 20260904083543 | 71 | 244 | 5.0 | 16.0 | 0.00 | 0.18 | 0.00 | 81 | 1012.8 |
| 20260904083106 | 71 | 223 | 4.0 | 18.0 | 0.00 | 0.18 | 0.00 | 81 | 1012.8 |
| 20260904082545 | 71 | 207 | 4.0 | 18.0 | 0.00 | 0.18 | 0.00 | 81 | 1012.8 |
| 20260904082048 | 71 | 201 | 7.0 | 20.0 | 0.00 | 0.18 | 0.00 | 80 | 1012.9 |
| 20260904081604 | 71 | 258 | 8.0 | 20.0 | 0.00 | 0.18 | 0.00 | 80 | 1013.0 |
| 20260904081044 | 71 | 227 | 6.0 | 20.0 | 0.00 | 0.18 | 0.00 | 80 | 1013.0 |
| 20260904080545 | 71 | 240 | 4.0 | 20.0 | 0.00 | 0.18 | 0.00 | 80 | 1013.0 |
| 20260904080135 | 71 | 246 | 6.0 | 20.0 | 0.00 | 0.18 | 0.00 | 80 | 1012.9 |
| 20260904075544 | 71 | 250 | 5.0 | 19.0 | 0.00 | 0.18 | 0.00 | 80 | 1012.8 |
| 20260904075046 | 71 | 0 | 2.0 | 19.0 | 0.00 | 0.18 | 0.00 | 80 | 1012.9 |
| 20260904074610 | 71 | 241 | 9.0 | 23.0 | 0.00 | 0.18 | 0.00 | 80 | 1012.9 |
| 20260904074044 | 71 | 247 | 5.0 | 23.0 | 0.00 | 0.18 | 0.00 | 80 | 1012.9 |
| 20260904073544 | 71 | 209 | 7.0 | 23.0 | 0.00 | 0.18 | 0.00 | 80 | 1013.0 |
| 20260904073105 | 71 | 250 | 9.0 | 22.0 | 0.00 | 0.18 | 0.00 | 81 | 1013.0 |
| 20260904072545 | 70 | 219 | 10.0 | 22.0 | 0.00 | 0.18 | 0.00 | 82 | 1013.2 |
| 20260904072045 | 70 | 240 | 6.0 | 22.0 | 0.00 | 0.18 | 0.00 | 81 | 1013.3 |
| 20260904071606 | 70 | 231 | 9.0 | 22.0 | 0.00 | 0.18 | 0.00 | 82 | 1013.3 |
| 20260904071045 | 70 | 246 | 9.0 | 21.0 | 0.00 | 0.18 | 0.00 | 82 | 1013.3 |
| 20260904070545 | 70 | 256 | 10.0 | 27.0 | 0.00 | 0.18 | 0.00 | 82 | 1013.5 |
| 20260904070101 | 69 | 0 | 8.0 | 27.0 | 0.00 | 0.18 | 0.00 | 83 | 1013.5 |
| 20260904065543 | 69 | 232 | 5.0 | 21.0 | 0.00 | 0.18 | 0.00 | 83 | 1013.6 |
| 20260904065045 | 69 | 224 | 7.0 | 21.0 | 0.00 | 0.18 | 0.00 | 83 | 1013.5 |
| 20260904064605 | 69 | 238 | 4.0 | 19.0 | 0.00 | 0.18 | 0.00 | 83 | 1013.6 |
| 20260904064046 | 69 | 235 | 6.0 | 17.0 | 0.00 | 0.18 | 0.00 | 84 | 1013.6 |
| 20260904063544 | 69 | 248 | 5.0 | 19.0 | 0.00 | 0.18 | 0.00 | 84 | 1013.4 |
| 20260904063105 | 69 | 224 | 4.0 | 19.0 | 0.00 | 0.18 | 0.00 | 85 | 1013.5 |
| 20260904062545 | 68 | 227 | 6.0 | 17.0 | 0.00 | 0.18 | 0.00 | 85 | 1013.6 |
| 20260904062043 | 68 | 0 | 6.0 | 17.0 | 0.00 | 0.18 | 0.00 | 85 | 1013.6 |
| 20260904061603 | 68 | 225 | 6.0 | 17.0 | 0.00 | 0.18 | 0.00 | 86 | 1013.8 |
| 20260904061045 | 68 | 194 | 5.0 | 17.0 | 0.00 | 0.18 | 0.00 | 85 | 1013.8 |
| 20260904060545 | 68 | 245 | 6.0 | 17.0 | 0.00 | 0.18 | 0.00 | 85 | 1013.9 |
| 20260904060121 | 68 | 251 | 5.0 | 15.0 | 0.00 | 0.18 | 0.00 | 86 | 1013.9 |
| 20260904055543 | 68 | 232 | 2.0 | 16.0 | 0.00 | 0.18 | 0.00 | 86 | 1013.9 |
| 20260904055044 | 68 | 195 | 5.0 | 16.0 | 0.00 | 0.18 | 0.00 | 86 | 1014.0 |
| 20260904054601 | 68 | 221 | 4.0 | 17.0 | 0.00 | 0.18 | 0.00 | 86 | 1014.1 |
| 20260904054044 | 68 | 0 | 3.0 | 18.0 | 0.00 | 0.18 | 0.00 | 86 | 1014.2 |
| 20260904053542 | 68 | 0 | 3.0 | 18.0 | 0.00 | 0.18 | 0.00 | 86 | 1014.2 |
| 20260904053145 | 68 | 242 | 5.0 | 17.0 | 0.00 | 0.18 | 0.00 | 86 | 1014.2 |
| 20260904052546 | 68 | 243 | 3.0 | 18.0 | 0.00 | 0.18 | 0.00 | 86 | 1014.3 |
| 20260904052046 | 68 | 0 | 1.0 | 18.0 | 0.00 | 0.18 | 0.00 | 86 | 1014.3 |
| 20260904051614 | 68 | 0 | 3.0 | 18.0 | 0.00 | 0.18 | 0.00 | 87 | 1014.5 |
| 20260904051045 | 68 | 207 | 4.0 | 18.0 | 0.00 | 0.18 | 0.00 | 86 | 1014.3 |
| 20260904050544 | 68 | 0 | 6.0 | 18.0 | 0.00 | 0.18 | 0.00 | 86 | 1014.3 |
| 20260904050058 | 68 | 263 | 3.0 | 23.0 | 0.00 | 0.18 | 0.00 | 86 | 1014.4 |
| 20260904045542 | 68 | 283 | 6.0 | 23.0 | 0.00 | 0.18 | 0.00 | 86 | 1014.5 |
| 20260904045042 | 68 | 220 | 5.0 | 18.0 | 0.00 | 0.18 | 0.00 | 87 | 1014.5 |
| 20260904044611 | 68 | 239 | 4.0 | 17.0 | 0.00 | 0.18 | 0.00 | 87 | 1014.5 |
| 20260904044046 | 68 | 0 | 5.0 | 17.0 | 0.00 | 0.18 | 0.00 | 87 | 1014.4 |
| 20260904043545 | 68 | 258 | 2.0 | 15.0 | 0.00 | 0.18 | 0.00 | 87 | 1014.4 |
| 20260904043114 | 68 | 0 | 4.0 | 15.0 | 0.00 | 0.18 | 0.00 | 87 | 1014.3 |
| 20260904042545 | 68 | 215 | 4.0 | 19.0 | 0.00 | 0.18 | 0.00 | 87 | 1014.5 |
| 20260904042045 | 68 | 0 | 5.0 | 19.0 | 0.00 | 0.18 | 0.00 | 87 | 1014.6 |
| 20260904041605 | 68 | 238 | 2.0 | 17.0 | 0.00 | 0.18 | 0.00 | 87 | 1014.6 |
| 20260904041045 | 68 | 242 | 3.0 | 17.0 | 0.00 | 0.18 | 0.00 | 87 | 1014.8 |
| 20260904040542 | 68 | 230 | 7.0 | 18.0 | 0.00 | 0.18 | 0.00 | 87 | 1014.7 |
| 20260904040105 | 68 | 243 | 4.0 | 18.0 | 0.00 | 0.18 | 0.00 | 87 | 1014.8 |
| 20260904035545 | 68 | 252 | 5.0 | 18.0 | 0.00 | 0.18 | 0.00 | 87 | 1014.9 |
| 20260904035043 | 68 | 207 | 2.0 | 14.0 | 0.00 | 0.18 | 0.00 | 87 | 1015.0 |
| 20260904034603 | 68 | 0 | 3.0 | 14.0 | 0.00 | 0.18 | 0.00 | 87 | 1015.2 |
| 20260904034045 | 68 | 0 | 1.0 | 16.0 | 0.00 | 0.18 | 0.00 | 87 | 1015.1 |
| 20260904033546 | 68 | 225 | 2.0 | 16.0 | 0.00 | 0.18 | 0.00 | 87 | 1015.1 |
| 20260904033107 | 68 | 0 | 5.0 | 19.0 | 0.00 | 0.18 | 0.00 | 87 | 1015.1 |
| 20260904032545 | 68 | 200 | 4.0 | 19.0 | 0.00 | 0.18 | 0.00 | 87 | 1015.2 |
| 20260904032044 | 68 | 223 | 3.0 | 17.0 | 0.00 | 0.18 | 0.00 | 87 | 1015.3 |
| 20260904031556 | 68 | 0 | 1.0 | 14.0 | 0.00 | 0.18 | 0.00 | 87 | 1015.3 |
| 20260904031044 | 68 | 230 | 3.0 | 14.0 | 0.00 | 0.18 | 0.00 | 87 | 1015.5 |
| 20260904030542 | 68 | 0 | 1.0 | 20.0 | 0.00 | 0.18 | 0.00 | 87 | 1015.5 |
| 20260904030056 | 68 | 0 | 4.0 | 20.0 | 0.00 | 0.18 | 0.00 | 87 | 1015.7 |
| 20260904025546 | 68 | 258 | 3.0 | 15.0 | 0.00 | 0.18 | 0.00 | 87 | 1015.9 |
| 20260904025044 | 68 | 229 | 4.0 | 14.0 | 0.00 | 0.18 | 0.00 | 87 | 1015.7 |
| 20260904024622 | 68 | 0 | 1.0 | 16.0 | 0.00 | 0.18 | 0.00 | 87 | 1015.8 |
| 20260904024048 | 68 | 246 | 5.0 | 16.0 | 0.00 | 0.18 | 0.00 | 87 | 1015.8 |
| 20260904023545 | 68 | 247 | 4.0 | 18.0 | 0.00 | 0.18 | 0.00 | 87 | 1015.8 |
| 20260904023108 | 68 | 0 | 5.0 | 20.0 | 0.00 | 0.18 | 0.00 | 87 | 1015.9 |
| 20260904022545 | 68 | 249 | 5.0 | 20.0 | 0.00 | 0.18 | 0.00 | 87 | 1016.0 |
| 20260904022044 | 68 | 0 | 2.0 | 20.0 | 0.00 | 0.18 | 0.00 | 88 | 1016.0 |
| 20260904021603 | 68 | 236 | 0.0 | 14.0 | 0.00 | 0.18 | 0.00 | 88 | 1016.0 |
| 20260904021045 | 68 | 254 | 2.0 | 14.0 | 0.00 | 0.18 | 0.00 | 88 | 1016.1 |
| 20260904020544 | 68 | 249 | 1.0 | 12.0 | 0.00 | 0.18 | 0.00 | 88 | 1016.2 |
| 20260904020104 | 68 | 0 | 2.0 | 22.0 | 0.00 | 0.18 | 0.00 | 88 | 1016.2 |
| 20260904015545 | 68 | 224 | 5.0 | 22.0 | 0.00 | 0.18 | 0.00 | 88 | 1016.3 |
| 20260904015045 | 68 | 0 | 4.0 | 14.0 | 0.00 | 0.18 | 0.00 | 88 | 1016.4 |
| 20260904014612 | 68 | 0 | 2.0 | 14.0 | 0.00 | 0.18 | 0.00 | 88 | 1016.3 |
| 20260904014045 | 68 | 225 | 3.0 | 14.0 | 0.00 | 0.18 | 0.00 | 88 | 1016.3 |
| 20260904013547 | 68 | 231 | 1.0 | 22.0 | 0.00 | 0.18 | 0.00 | 88 | 1016.3 |
| 20260904013106 | 68 | 228 | 2.0 | 22.0 | 0.00 | 0.18 | 0.00 | 88 | 1016.3 |
| 20260904012544 | 68 | 192 | 1.0 | 14.0 | 0.00 | 0.18 | 0.00 | 88 | 1016.4 |
| 20260904012044 | 68 | 248 | 4.0 | 15.0 | 0.00 | 0.18 | 0.00 | 89 | 1016.3 |
| 20260904011603 | 68 | 238 | 3.0 | 16.0 | 0.00 | 0.18 | 0.00 | 89 | 1016.3 |
| 20260904011046 | 68 | 232 | 5.0 | 16.0 | 0.00 | 0.18 | 0.00 | 89 | 1016.4 |
| 20260904010545 | 68 | 249 | 2.0 | 13.0 | 0.00 | 0.18 | 0.00 | 89 | 1016.4 |
| 20260904010106 | 68 | 231 | 3.0 | 14.0 | 0.00 | 0.18 | 0.00 | 89 | 1016.6 |
| 20260904005544 | 68 | 0 | 3.0 | 14.0 | 0.00 | 0.18 | 0.00 | 89 | 1016.6 |
| 20260904005044 | 67 | 0 | 3.0 | 10.0 | 0.00 | 0.18 | 0.00 | 89 | 1016.5 |
| 20260904004604 | 67 | 222 | 4.0 | 16.0 | 0.00 | 0.18 | 0.00 | 89 | 1016.6 |
| 20260904004045 | 67 | 227 | 2.0 | 16.0 | 0.00 | 0.18 | 0.00 | 90 | 1016.6 |
| 20260904003544 | 67 | 0 | 1.0 | 14.0 | 0.00 | 0.18 | 0.00 | 90 | 1016.7 |
| 20260904003110 | 67 | 0 | 3.0 | 14.0 | 0.00 | 0.18 | 0.00 | 90 | 1016.8 |
| 20260904002545 | 67 | 200 | 1.0 | 13.0 | 0.00 | 0.18 | 0.00 | 90 | 1016.9 |
| 20260904002044 | 67 | 217 | 1.0 | 10.0 | 0.00 | 0.18 | 0.00 | 90 | 1017.0 |
| 20260904001610 | 67 | 0 | 1.0 | 10.0 | 0.00 | 0.18 | 0.00 | 90 | 1017.1 |
| 20260904001043 | 67 | 0 | 0.0 | 11.0 | 0.00 | 0.18 | 0.00 | 90 | 1017.1 |
| 20260904000544 | 67 | 223 | 2.0 | 11.0 | 0.00 | 0.18 | 0.00 | 90 | 1017.0 |
| 20260904000117 | 67 | 232 | 2.0 | 10.0 | 0.00 | 0.18 | 0.00 | 90 | 1017.1 |
| 20260903235544 | 67 | 254 | 0.0 | 9.0 | 0.00 | 0.18 | 0.00 | 90 | 1017.1 |
| 20260903235045 | 67 | 0 | 0.0 | 12.0 | 0.00 | 0.18 | 0.00 | 91 | 1017.2 |
| 20260903234556 | 67 | 212 | 1.0 | 12.0 | 0.00 | 0.18 | 0.00 | 91 | 1017.3 |
| 20260903234045 | 67 | 248 | 0.0 | 13.0 | 0.00 | 0.18 | 0.00 | 91 | 1017.4 |
| 20260903233543 | 67 | 0 | 1.0 | 13.0 | 0.00 | 0.18 | 0.00 | 91 | 1017.4 |
| 20260903233121 | 67 | 255 | 1.0 | 13.0 | 0.00 | 0.18 | 0.00 | 91 | 1017.4 |
| 20260903232543 | 67 | 0 | 0.0 | 11.0 | 0.00 | 0.18 | 0.00 | 91 | 1017.4 |
| 20260903232043 | 67 | 231 | 3.0 | 14.0 | 0.00 | 0.18 | 0.00 | 90 | 1017.4 |
| 20260903231604 | 67 | 0 | 1.0 | 14.0 | 0.00 | 0.18 | 0.00 | 90 | 1017.4 |
| 20260903231045 | 67 | 0 | 3.0 | 13.0 | 0.00 | 0.18 | 0.00 | 90 | 1017.5 |
| 20260903230545 | 67 | 242 | 2.0 | 12.0 | 0.00 | 0.18 | 0.00 | 90 | 1017.6 |
| 20260903230112 | 67 | 230 | 0.0 | 10.0 | 0.00 | 0.18 | 0.00 | 90 | 1017.5 |
| 20260903225545 | 67 | 238 | 1.0 | 10.0 | 0.00 | 0.18 | 0.00 | 90 | 1017.6 |
| 20260903225044 | 67 | 0 | 0.0 | 8.0 | 0.00 | 0.18 | 0.00 | 89 | 1017.8 |
| 20260903224630 | 67 | 0 | 0.0 | 8.0 | 0.00 | 0.18 | 0.00 | 89 | 1017.9 |
| 20260903224044 | 67 | 0 | 0.0 | 9.0 | 0.00 | 0.18 | 0.00 | 90 | 1017.8 |
| 20260903223545 | 67 | 0 | 0.0 | 9.0 | 0.00 | 0.18 | 0.00 | 90 | 1017.9 |
| 20260903223135 | 67 | 0 | 0.0 | 8.0 | 0.00 | 0.18 | 0.00 | 90 | 1018.0 |
| 20260903222545 | 67 | 237 | 0.0 | 8.0 | 0.00 | 0.18 | 0.00 | 90 | 1018.1 |
| 20260903222044 | 67 | 242 | 0.0 | 8.0 | 0.00 | 0.18 | 0.00 | 90 | 1018.0 |
| 20260903221559 | 67 | 0 | 0.0 | 8.0 | 0.00 | 0.18 | 0.00 | 90 | 1018.2 |
| 20260903221049 | 66 | 0 | 1.0 | 8.0 | 0.00 | 0.18 | 0.00 | 90 | 1018.1 |
| 20260903220544 | 66 | 0 | 0.0 | 6.0 | 0.00 | 0.18 | 0.00 | 91 | 1018.1 |
| 20260903220105 | 66 | 0 | 0.0 | 6.0 | 0.00 | 0.18 | 0.00 | 91 | 1018.0 |
| 20260903215545 | 66 | 0 | 0.0 | 9.0 | 0.00 | 0.18 | 0.18 | 91 | 1018.1 |
| 20260903215044 | 66 | 0 | 0.0 | 9.0 | 0.00 | 0.18 | 0.18 | 91 | 1018.4 |
| 20260903214606 | 66 | 0 | 0.0 | 9.0 | 0.00 | 0.18 | 0.18 | 91 | 1018.3 |
| 20260903214044 | 66 | 0 | 0.0 | 2.0 | 0.00 | 0.18 | 0.18 | 90 | 1018.4 |
| 20260903213546 | 66 | 0 | 0.0 | 4.0 | 0.00 | 0.18 | 0.18 | 90 | 1018.4 |
| 20260903213111 | 66 | 0 | 0.0 | 4.0 | 0.00 | 0.18 | 0.18 | 90 | 1018.4 |
| 20260903212541 | 66 | 224 | 0.0 | 0.0 | 0.00 | 0.18 | 0.18 | 90 | 1018.4 |
| 20260903212045 | 66 | 0 | 0.0 | 0.0 | 0.00 | 0.18 | 0.18 | 89 | 1018.5 |
| 20260903211601 | 66 | 0 | 0.0 | 0.0 | 0.00 | 0.18 | 0.18 | 89 | 1018.5 |
| 20260903211045 | 66 | 0 | 0.0 | 0.0 | 0.00 | 0.18 | 0.18 | 88 | 1018.5 |
| 20260903210546 | 66 | 0 | 0.0 | 2.0 | 0.00 | 0.18 | 0.18 | 88 | 1018.5 |
| 20260903210144 | 67 | 0 | 0.0 | 2.0 | 0.00 | 0.18 | 0.18 | 87 | 1018.7 |
| 20260903205544 | 67 | 0 | 0.0 | 8.0 | 0.00 | 0.18 | 0.18 | 87 | 1018.6 |
| 20260903205043 | 67 | 0 | 0.0 | 8.0 | 0.00 | 0.18 | 0.18 | 86 | 1018.7 |
| 20260903204607 | 67 | 0 | 0.0 | 8.0 | 0.00 | 0.18 | 0.18 | 86 | 1018.7 |
| 20260903204049 | 68 | 0 | 0.0 | 5.0 | 0.00 | 0.18 | 0.18 | 85 | 1018.7 |
| 20260903203543 | 68 | 0 | 0.0 | 14.0 | 0.00 | 0.18 | 0.18 | 85 | 1018.7 |
| 20260903203100 | 68 | 0 | 0.0 | 14.0 | 0.00 | 0.18 | 0.18 | 85 | 1018.7 |
| 20260903202544 | 68 | 232 | 1.0 | 14.0 | 0.00 | 0.18 | 0.18 | 86 | 1018.8 |
| 20260903202043 | 68 | 234 | 0.0 | 8.0 | 0.00 | 0.18 | 0.18 | 86 | 1018.7 |
| 20260903201601 | 68 | 0 | 0.0 | 8.0 | 0.00 | 0.18 | 0.18 | 86 | 1018.3 |
| 20260903201042 | 68 | 0 | 0.0 | 0.0 | 0.00 | 0.18 | 0.18 | 86 | 1018.5 |
| 20260903200542 | 68 | 0 | 0.0 | 0.0 | 0.00 | 0.18 | 0.18 | 86 | 1018.5 |
| 20260903200058 | 68 | 0 | 0.0 | 0.0 | 0.00 | 0.18 | 0.18 | 86 | 1018.4 |
| 20260903195543 | 68 | 0 | 0.0 | 0.0 | 0.00 | 0.18 | 0.18 | 87 | 1018.5 |
| 20260903195042 | 68 | 0 | 0.0 | 0.0 | 0.00 | 0.18 | 0.18 | 87 | 1018.3 |
| 20260903194606 | 68 | 0 | 0.0 | 0.0 | 0.00 | 0.18 | 0.18 | 87 | 1018.4 |
| 20260903194042 | 68 | 0 | 0.0 | 0.0 | 0.00 | 0.18 | 0.18 | 86 | 1018.5 |
| 20260903193543 | 68 | 0 | 0.0 | 0.0 | 0.00 | 0.18 | 0.18 | 86 | 1018.3 |
| 20260903193101 | 68 | 0 | 0.0 | 0.0 | 0.00 | 0.18 | 0.18 | 86 | 1018.2 |
| 20260903192543 | 68 | 0 | 0.0 | 0.0 | 0.00 | 0.18 | 0.18 | 86 | 1018.2 |
| 20260903192042 | 68 | 0 | 0.0 | 0.0 | 0.00 | 0.18 | 0.18 | 86 | 1018.3 |
| 20260903191602 | 68 | 0 | 0.0 | 0.0 | 0.00 | 0.18 | 0.18 | 86 | 1018.4 |
| 20260903191046 | 68 | 0 | 0.0 | 0.0 | 0.00 | 0.18 | 0.18 | 85 | 1018.3 |
| 20260903190543 | 68 | 0 | 0.0 | 0.0 | 0.00 | 0.18 | 0.18 | 85 | 1018.3 |
| 20260903190107 | 68 | 0 | 0.0 | 3.0 | 0.00 | 0.18 | 0.18 | 85 | 1018.4 |
| 20260903185542 | 68 | 0 | 0.0 | 4.0 | 0.00 | 0.18 | 0.18 | 85 | 1018.5 |
| 20260903185042 | 68 | 0 | 0.0 | 4.0 | 0.00 | 0.18 | 0.18 | 85 | 1018.7 |
| 20260903184606 | 68 | 0 | 0.0 | 4.0 | 0.00 | 0.18 | 0.18 | 84 | 1018.8 |
| 20260903184042 | 68 | 0 | 0.0 | 9.0 | 0.00 | 0.18 | 0.18 | 84 | 1018.9 |
| 20260903183542 | 68 | 0 | 1.0 | 9.0 | 0.00 | 0.18 | 0.18 | 84 | 1018.6 |
| 20260903183112 | 69 | 0 | 0.0 | 4.0 | 0.00 | 0.18 | 0.18 | 84 | 1018.5 |
| 20260903182543 | 69 | 0 | 0.0 | 5.0 | 0.00 | 0.18 | 0.18 | 84 | 1018.3 |
| 20260903182042 | 69 | 0 | 0.0 | 5.0 | 0.00 | 0.18 | 0.18 | 83 | 1018.3 |
| 20260903181603 | 69 | 0 | 0.0 | 3.0 | 0.00 | 0.18 | 0.18 | 83 | 1018.4 |
| 20260903181042 | 69 | 0 | 0.0 | 3.0 | 0.00 | 0.18 | 0.18 | 83 | 1018.2 |
| 20260903180543 | 69 | 0 | 0.0 | 7.0 | 0.00 | 0.18 | 0.18 | 82 | 1018.1 |
| 20260903180109 | 69 | 0 | 0.0 | 7.0 | 0.00 | 0.18 | 0.18 | 82 | 1018.1 |
| 20260903175543 | 69 | 0 | 0.0 | 7.0 | 0.00 | 0.18 | 0.18 | 82 | 1018.0 |
| 20260903175043 | 69 | 0 | 0.0 | 7.0 | 0.00 | 0.18 | 0.18 | 83 | 1018.1 |
| 20260903174558 | 69 | 221 | 0.0 | 0.0 | 0.00 | 0.18 | 0.18 | 84 | 1018.2 |
| 20260903174043 | 69 | 0 | 0.0 | 0.0 | 0.00 | 0.18 | 0.18 | 84 | 1018.1 |
| 20260903173544 | 69 | 0 | 0.0 | 8.0 | 0.00 | 0.18 | 0.18 | 83 | 1018.1 |
| 20260903173104 | 69 | 0 | 0.0 | 8.0 | 0.00 | 0.18 | 0.18 | 83 | 1018.3 |
| 20260903172542 | 69 | 0 | 1.0 | 8.0 | 0.00 | 0.18 | 0.18 | 83 | 1018.3 |
| 20260903172042 | 69 | 0 | 0.0 | 0.0 | 0.00 | 0.18 | 0.18 | 83 | 1018.4 |
| 20260903171614 | 69 | 0 | 0.0 | 0.0 | 0.00 | 0.18 | 0.18 | 83 | 1018.3 |
| 20260903171043 | 69 | 0 | 0.0 | 6.0 | 0.00 | 0.18 | 0.18 | 82 | 1018.2 |
| 20260903170546 | 69 | 0 | 0.0 | 8.0 | 0.00 | 0.18 | 0.18 | 82 | 1018.1 |
| 20260903170109 | 70 | 0 | 0.0 | 11.0 | 0.00 | 0.18 | 0.18 | 81 | 1018.1 |
| 20260903165542 | 70 | 239 | 2.0 | 16.0 | 0.00 | 0.18 | 0.18 | 80 | 1018.1 |
| 20260903165042 | 70 | 213 | 2.0 | 16.0 | 0.00 | 0.18 | 0.18 | 80 | 1017.9 |
| 20260903164609 | 70 | 0 | 1.0 | 16.0 | 0.00 | 0.18 | 0.18 | 81 | 1018.0 |
| 20260903164043 | 70 | 0 | 1.0 | 16.0 | 0.00 | 0.18 | 0.18 | 80 | 1018.0 |
| 20260903163545 | 70 | 207 | 3.0 | 12.0 | 0.00 | 0.18 | 0.18 | 81 | 1017.9 |
| 20260903163104 | 70 | 0 | 0.0 | 11.0 | 0.00 | 0.18 | 0.18 | 81 | 1017.9 |
| 20260903162542 | 70 | 211 | 3.0 | 17.0 | 0.00 | 0.18 | 0.18 | 80 | 1017.9 |
| 20260903162041 | 70 | 229 | 5.0 | 17.0 | 0.00 | 0.18 | 0.18 | 80 | 1018.0 |
| 20260903161604 | 70 | 249 | 2.0 | 14.0 | 0.00 | 0.18 | 0.18 | 80 | 1018.1 |
| 20260903161043 | 70 | 228 | 5.0 | 14.0 | 0.00 | 0.18 | 0.18 | 80 | 1018.1 |
| 20260903160543 | 70 | 208 | 3.0 | 17.0 | 0.00 | 0.18 | 0.18 | 80 | 1017.9 |
| 20260903160109 | 70 | 0 | 4.0 | 17.0 | 0.00 | 0.18 | 0.18 | 80 | 1017.9 |
| 20260903155542 | 70 | 237 | 4.0 | 17.0 | 0.00 | 0.18 | 0.18 | 79 | 1017.9 |
| 20260903155042 | 71 | 241 | 5.0 | 19.0 | 0.00 | 0.18 | 0.18 | 79 | 1018.1 |
| 20260903154609 | 71 | 236 | 3.0 | 19.0 | 0.00 | 0.18 | 0.18 | 78 | 1018.1 |
| 20260903154047 | 71 | 183 | 7.0 | 21.0 | 0.00 | 0.18 | 0.18 | 78 | 1018.1 |
| 20260903153544 | 70 | 229 | 4.0 | 21.0 | 0.00 | 0.18 | 0.18 | 78 | 1018.2 |
| 20260903153107 | 70 | 216 | 6.0 | 18.0 | 0.00 | 0.18 | 0.18 | 79 | 1018.3 |
| 20260903152543 | 70 | 240 | 6.0 | 18.0 | 0.00 | 0.18 | 0.18 | 80 | 1018.2 |
| 20260903152042 | 70 | 0 | 1.0 | 17.0 | 0.00 | 0.18 | 0.18 | 80 | 1018.1 |
| 20260903151604 | 70 | 215 | 5.0 | 17.0 | 0.00 | 0.18 | 0.18 | 79 | 1018.1 |
| 20260903151046 | 71 | 210 | 4.0 | 17.0 | 0.00 | 0.18 | 0.18 | 78 | 1018.2 |
| 20260903150545 | 70 | 206 | 5.0 | 17.0 | 0.00 | 0.18 | 0.18 | 80 | 1018.2 |
| 20260903150108 | 69 | 212 | 1.0 | 15.0 | 0.00 | 0.18 | 0.18 | 81 | 1018.2 |
| 20260903145542 | 69 | 0 | 1.0 | 12.0 | 0.00 | 0.18 | 0.18 | 81 | 1018.2 |
| 20260903145045 | 70 | 231 | 1.0 | 15.0 | 0.00 | 0.18 | 0.18 | 80 | 1018.3 |
| 20260903144559 | 70 | 0 | 1.0 | 16.0 | 0.00 | 0.18 | 0.18 | 81 | 1018.2 |
| 20260903144044 | 70 | 248 | 6.0 | 16.0 | 0.00 | 0.18 | 0.18 | 80 | 1018.1 |
| 20260903143542 | 70 | 230 | 4.0 | 19.0 | 0.00 | 0.18 | 0.18 | 81 | 1018.2 |
| 20260903143109 | 69 | 169 | 7.0 | 19.0 | 0.00 | 0.18 | 0.18 | 82 | 1018.1 |
| 20260903142543 | 69 | 0 | 3.0 | 19.0 | 0.00 | 0.18 | 0.18 | 82 | 1018.1 |
| 20260903142046 | 69 | 0 | 4.0 | 19.0 | 0.00 | 0.18 | 0.18 | 82 | 1018.1 |
| 20260903141611 | 69 | 236 | 4.0 | 19.0 | 0.00 | 0.18 | 0.18 | 82 | 1018.1 |
| 20260903141042 | 69 | 0 | 3.0 | 15.0 | 0.00 | 0.18 | 0.18 | 83 | 1018.2 |
| 20260903140542 | 69 | 244 | 3.0 | 15.0 | 0.00 | 0.18 | 0.18 | 83 | 1018.2 |
| 20260903140115 | 69 | 0 | 0.0 | 20.0 | 0.00 | 0.18 | 0.18 | 83 | 1018.2 |
| 20260903135542 | 69 | 227 | 3.0 | 20.0 | 0.00 | 0.18 | 0.18 | 82 | 1018.3 |
| 20260903135043 | 69 | 0 | 4.0 | 15.0 | 0.00 | 0.18 | 0.18 | 84 | 1018.3 |
| 20260903134559 | 69 | 0 | 5.0 | 18.0 | 0.00 | 0.18 | 0.18 | 83 | 1018.2 |
| 20260903134043 | 68 | 221 | 5.0 | 22.0 | 0.00 | 0.18 | 0.18 | 83 | 1018.0 |
| 20260903133543 | 69 | 243 | 5.0 | 22.0 | 0.00 | 0.18 | 0.18 | 83 | 1018.2 |
| 20260903133109 | 69 | 232 | 7.0 | 22.0 | 0.00 | 0.18 | 0.18 | 84 | 1018.2 |
| 20260903132547 | 68 | 0 | 7.0 | 22.0 | 0.00 | 0.18 | 0.18 | 84 | 1018.3 |
| 20260903132047 | 69 | 257 | 6.0 | 20.0 | 0.00 | 0.18 | 0.18 | 85 | 1018.3 |